Location: Filler
(36.7551°N, 30.4456°E)
Time: 06:44:12
(UTC+00:00)

FENGYUN 3A - Pass Details

Date: 20 September 2024
Orbit: 821 x 835 km, 98.6° (Epoch: 12 October)

Event Time Altitude Azimuth Distance (km) Brightness Sun altitude
Rises 00:36:30 0° 7° (N) 3,364 7.3 -36.3°
Reaches altitude 10° 00:38:53 10° 3° (N) 2,426 6.4 -35.9°
Enters shadow 00:40:25 19° 358° (N) 1,856 5.7 -35.7°
